Back to catalog

COSMOS 2491 DEB

AlivePO
NORAD 57552·DEBRIS·🇷🇺 Russia

Launched Dec 25, 2013 from Plesetsk Cosmodrome

Loading…

Next Passes (next 24 hours)

TLE

StaleSource: Space-Track

Epoch: Jul 4, 2026, 00:31 UTC

1 57552U 13076AP  26185.02174603  .00006711  00000-0  28753-1 0  9997
2 57552  82.4164  86.8139 0208316  56.3615 305.7166 12.75244132146631

Track COSMOS 2491 DEB in real time with AllMySat

Download on the App Store